Starlink 32600

operational
NORAD ID: 62178 Int'l Des: 2024-225 Owner: SPXS Country: US Constellation: starlink
LEOCIRCULAR

Über Starlink 32600

Beschreibung wird geladen...

Live-Position

3D-Globus wird geladen...

Nächste Überflüge

Höhenverlauf

Altitude vs Time

uPlot chart will show altitude changes over time

Zweizeiliger Elementsatz

1 62178U 24225R 25256.98618308 .00003052 00000-0 26342-3 0 9992
2 62178 69.9998 240.0926 0003194 270.0425 90.0369 14.98339032 43653
Epoch: 13. Sept. 2025 • Age: 36 hours

Aktueller Status

Höhe 583.2 km
Geschwindigkeit 7.57 km/s
Subsatellitenpunkt 57.88°N, 108.86°E
Startdatum 30. Nov. 2024
Alter 0.7 years
Typ internet

Technische Details

Klassifizierung Payload
Masse 730.00 kg
Trockenmasse 700.00 kg
Gesamtmasse 730.00 kg
Länge 0.30 m
Durchmesser 4.10 m
Spannweite 29.00 m
Form Box + pan
Hersteller SPXS
Bus-Typ Starlink V2M
Phasenstatus In Orbit
Besitzer/Staat SPXS/US

Große Konstellationen

Loading constellations...